Tabellarische Ansicht des 16.2.2010


Die einzelnen Werte des Tages

Uhrzeit Temperatur Luftdruck Luftfeuchte Wind Hi-Wind Taupunkt THW Index Wind Chill Heat Index Solar- strahlung Regen

00:00

-1.8 C

1003.9 hpa

83 %

12.9 km/h aus 117

20.9 km/h aus SE

-4.3 C

-6.3 C

-6.2 C

-1.9 C

0 W/m

0.00 mm

00:05

-1.9 C

1003.9 hpa

84 %

9.7 km/h aus 115

20.9 km/h aus ESE

-4.3 C

-5.6 C

-5.5 C

-2.1 C

0 W/m

0.00 mm

00:10

-2.1 C

1003.9 hpa

84 %

8.0 km/h aus 117

16.1 km/h aus SE

-4.4 C

-5.3 C

-5.2 C

-2.2 C

0 W/m

0.00 mm

00:15

-2.1 C

1003.9 hpa

84 %

8.0 km/h aus 117

17.7 km/h aus SE

-4.4 C

-5.3 C

-5.2 C

-2.2 C

0 W/m

0.00 mm

00:20

-2.1 C

1003.9 hpa

84 %

8.0 km/h aus 117

16.1 km/h aus ESE

-4.4 C

-5.3 C

-5.2 C

-2.2 C

0 W/m

0.00 mm

00:25

-2.1 C

1003.9 hpa

84 %

8.0 km/h aus 116

16.1 km/h aus SE

-4.4 C

-5.3 C

-5.2 C

-2.2 C

0 W/m

0.00 mm

00:30

-2.0 C

1003.9 hpa

84 %

8.0 km/h aus 117

16.1 km/h aus SE

-4.3 C

-5.2 C

-5.1 C

-2.1 C

0 W/m

0.00 mm

00:35

-2.0 C

1003.9 hpa

84 %

8.0 km/h aus 117

17.7 km/h aus SSE

-4.3 C

-5.2 C

-5.1 C

-2.1 C

0 W/m

0.00 mm

00:40

-2.0 C

1003.9 hpa

84 %

8.0 km/h aus 117

16.1 km/h aus SE

-4.3 C

-5.2 C

-5.1 C

-2.1 C

0 W/m

0.00 mm

00:45

-2.1 C

1003.9 hpa

85 %

8.0 km/h aus 116

16.1 km/h aus E

-4.2 C

-5.3 C

-5.2 C

-2.2 C

0 W/m

0.00 mm

00:50

-2.0 C

1003.9 hpa

85 %

9.7 km/h aus 116

19.3 km/h aus ESE

-4.2 C

-5.7 C

-5.6 C

-2.1 C

0 W/m

0.00 mm

00:55

-2.0 C

1003.9 hpa

85 %

8.0 km/h aus 117

16.1 km/h aus SE

-4.2 C

-5.2 C

-5.1 C

-2.1 C

0 W/m

0.00 mm

01:00

-2.0 C

1003.9 hpa

84 %

8.0 km/h aus 117

16.1 km/h aus SE

-4.3 C

-5.2 C

-5.1 C

-2.1 C

0 W/m

0.00 mm

01:05

-2.1 C

1003.9 hpa

84 %

6.4 km/h aus 116

12.9 km/h aus SE

-4.4 C

-4.7 C

-4.6 C

-2.2 C

0 W/m

0.00 mm

01:10

-2.1 C

1003.9 hpa

84 %

6.4 km/h aus 117

16.1 km/h aus SE

-4.5 C

-4.7 C

-4.6 C

-2.2 C

0 W/m

0.00 mm

01:15

-2.2 C

1003.8 hpa

84 %

9.7 km/h aus 117

17.7 km/h aus SE

-4.5 C

-5.9 C

-5.8 C

-2.3 C

0 W/m

0.00 mm

01:20

-2.2 C

1003.8 hpa

84 %

8.0 km/h aus 116

16.1 km/h aus SE

-4.6 C

-5.4 C

-5.3 C

-2.3 C

0 W/m

0.00 mm

01:25

-2.3 C

1003.8 hpa

84 %

6.4 km/h aus 116

16.1 km/h aus SE

-4.6 C

-4.9 C

-4.8 C

-2.4 C

0 W/m

0.00 mm

01:30

-2.2 C

1003.8 hpa

85 %

8.0 km/h aus 117

16.1 km/h aus ESE

-4.4 C

-5.4 C

-5.3 C

-2.3 C

0 W/m

0.00 mm

01:35

-2.2 C

1003.8 hpa

85 %

6.4 km/h aus 117

11.3 km/h aus SE

-4.4 C

-4.8 C

-4.7 C

-2.3 C

0 W/m

0.00 mm

01:40

-2.2 C

1003.8 hpa

85 %

6.4 km/h aus 117

14.5 km/h aus ESE

-4.4 C

-4.8 C

-4.7 C

-2.3 C

0 W/m

0.00 mm

01:45

-2.2 C

1003.7 hpa

85 %

6.4 km/h aus 116

17.7 km/h aus ESE

-4.4 C

-4.8 C

-4.7 C

-2.3 C

0 W/m

0.00 mm

01:50

-2.2 C

1003.7 hpa

85 %

8.0 km/h aus 117

14.5 km/h aus ESE

-4.4 C

-5.4 C

-5.3 C

-2.3 C

0 W/m

0.00 mm

01:55

-2.2 C

1003.7 hpa

85 %

6.4 km/h aus 117

11.3 km/h aus ESE

-4.4 C

-4.8 C

-4.7 C

-2.3 C

0 W/m

0.00 mm

02:00

-2.3 C

1003.7 hpa

84 %

8.0 km/h aus 117

17.7 km/h aus SE

-4.6 C

-5.5 C

-5.4 C

-2.4 C

0 W/m

0.00 mm

02:05

-2.4 C

1003.7 hpa

84 %

6.4 km/h aus 117

16.1 km/h aus ESE

-4.7 C

-5.1 C

-4.9 C

-2.5 C

0 W/m

0.00 mm

02:10

-2.4 C

1003.7 hpa

85 %

6.4 km/h aus 117

14.5 km/h aus ESE

-4.6 C

-5.1 C

-5.0 C

-2.6 C

0 W/m

0.00 mm

02:15

-2.4 C

1003.7 hpa

85 %

8.0 km/h aus 118

17.7 km/h aus ESE

-4.6 C

-5.7 C

-5.6 C

-2.6 C

0 W/m

0.00 mm

02:20

-2.4 C

1003.7 hpa

85 %

8.0 km/h aus 117

16.1 km/h aus ESE

-4.6 C

-5.7 C

-5.6 C

-2.6 C

0 W/m

0.00 mm

02:25

-2.5 C

1003.7 hpa

85 %

8.0 km/h aus 117

11.3 km/h aus ESE

-4.7 C

-5.8 C

-5.7 C

-2.6 C

0 W/m

0.00 mm

02:30

-2.6 C

1003.6 hpa

85 %

6.4 km/h aus 117

14.5 km/h aus ESE

-4.7 C

-5.2 C

-5.1 C

-2.7 C

0 W/m

0.00 mm

02:35

-2.6 C

1003.6 hpa

85 %

6.4 km/h aus 117

12.9 km/h aus SE

-4.7 C

-5.2 C

-5.1 C

-2.7 C

0 W/m

0.00 mm

02:40

-2.6 C

1003.6 hpa

85 %

6.4 km/h aus 117

12.9 km/h aus ESE

-4.7 C

-5.2 C

-5.1 C

-2.7 C

0 W/m

0.00 mm

02:45

-2.6 C

1003.5 hpa

85 %

4.8 km/h aus 116

9.7 km/h aus SE

-4.7 C

-4.5 C

-4.4 C

-2.7 C

0 W/m

0.00 mm

02:50

-2.6 C

1003.5 hpa

85 %

6.4 km/h aus 117

16.1 km/h aus SE

-4.8 C

-5.3 C

-5.2 C

-2.7 C

0 W/m

0.00 mm

02:55

-2.7 C

1003.5 hpa

85 %

8.0 km/h aus 117

17.7 km/h aus SSE

-4.8 C

-6.0 C

-5.9 C

-2.8 C

0 W/m

0.00 mm

03:00

-2.7 C

1003.4 hpa

85 %

8.0 km/h aus 117

14.5 km/h aus SE

-4.8 C

-6.0 C

-5.9 C

-2.8 C

0 W/m

0.00 mm

03:05

-2.7 C

1003.4 hpa

85 %

6.4 km/h aus 117

14.5 km/h aus SE

-4.9 C

-5.4 C

-5.3 C

-2.8 C

0 W/m

0.00 mm

03:10

-2.7 C

1003.4 hpa

85 %

8.0 km/h aus 116

16.1 km/h aus SE

-4.9 C

-6.1 C

-5.9 C

-2.8 C

0 W/m

0.00 mm

03:15

-2.7 C

1003.3 hpa

85 %

6.4 km/h aus 116

14.5 km/h aus ESE

-4.9 C

-5.4 C

-5.3 C

-2.8 C

0 W/m

0.00 mm

03:20

-2.7 C

1003.3 hpa

85 %

6.4 km/h aus 117

11.3 km/h aus SE

-4.8 C

-5.4 C

-5.3 C

-2.8 C

0 W/m

0.00 mm

03:25

-2.7 C

1003.3 hpa

85 %

6.4 km/h aus 117

14.5 km/h aus SE

-4.8 C

-5.4 C

-5.3 C

-2.8 C

0 W/m

0.00 mm

03:30

-2.7 C

1003.2 hpa

85 %

6.4 km/h aus 117

14.5 km/h aus SE

-4.8 C

-5.4 C

-5.3 C

-2.8 C

0 W/m

0.00 mm

03:35

-2.7 C

1003.2 hpa

85 %

6.4 km/h aus 117

14.5 km/h aus ESE

-4.9 C

-5.4 C

-5.3 C

-2.8 C

0 W/m

0.00 mm

03:40

-2.8 C

1003.2 hpa

85 %

6.4 km/h aus 117

11.3 km/h aus SE

-4.9 C

-5.5 C

-5.4 C

-2.9 C

0 W/m

0.00 mm

03:45

-2.8 C

1003.0 hpa

86 %

6.4 km/h aus 117

14.5 km/h aus ESE

-4.8 C

-5.5 C

-5.4 C

-2.9 C

0 W/m

0.00 mm

03:50

-2.8 C

1003.0 hpa

86 %

8.0 km/h aus 117

16.1 km/h aus SE

-4.8 C

-6.1 C

-6.0 C

-2.9 C

0 W/m

0.00 mm

03:55

-2.8 C

1003.0 hpa

86 %

6.4 km/h aus 117

16.1 km/h aus ESE

-4.8 C

-5.6 C

-5.4 C

-2.9 C

0 W/m

0.00 mm

04:00

-2.8 C

1002.8 hpa

86 %

6.4 km/h aus 117

11.3 km/h aus SE

-4.8 C

-5.6 C

-5.4 C

-2.9 C

0 W/m

0.00 mm

04:05

-2.9 C

1002.8 hpa

86 %

4.8 km/h aus 116

9.7 km/h aus ESE

-4.9 C

-4.9 C

-4.8 C

-3.0 C

0 W/m

0.00 mm

04:10

-2.9 C

1002.8 hpa

86 %

6.4 km/h aus 117

16.1 km/h aus SSE

-5.0 C

-5.7 C

-5.6 C

-3.1 C

0 W/m

0.00 mm

04:15

-2.9 C

1002.8 hpa

86 %

6.4 km/h aus 117

14.5 km/h aus SE

-5.0 C

-5.7 C

-5.6 C

-3.1 C

0 W/m

0.00 mm

04:20

-3.0 C

1002.8 hpa

85 %

8.0 km/h aus 116

17.7 km/h aus SSE

-5.2 C

-6.4 C

-6.3 C

-3.1 C

0 W/m

0.00 mm

04:25

-3.1 C

1002.8 hpa

85 %

8.0 km/h aus 117

14.5 km/h aus SSE

-5.3 C

-6.5 C

-6.4 C

-3.2 C

0 W/m

0.00 mm

04:30

-3.2 C

1002.8 hpa

85 %

9.7 km/h aus 117

14.5 km/h aus SE

-5.4 C

-7.2 C

-7.1 C

-3.3 C

0 W/m

0.00 mm

04:35

-3.3 C

1002.8 hpa

85 %

6.4 km/h aus 116

14.5 km/h aus SE

-5.4 C

-6.1 C

-5.9 C

-3.4 C

0 W/m

0.00 mm

04:40

-3.3 C

1002.8 hpa

86 %

6.4 km/h aus 116

17.7 km/h aus SE

-5.3 C

-6.1 C

-5.9 C

-3.4 C

0 W/m

0.00 mm

04:45

-3.3 C

1002.8 hpa

85 %

6.4 km/h aus 117

14.5 km/h aus SE

-5.4 C

-6.1 C

-5.9 C

-3.4 C

0 W/m

0.00 mm

04:50

-3.4 C

1002.8 hpa

85 %

6.4 km/h aus 116

11.3 km/h aus SSE

-5.5 C

-6.2 C

-6.1 C

-3.5 C

0 W/m

0.00 mm

04:55

-3.5 C

1002.8 hpa

86 %

4.8 km/h aus 115

11.3 km/h aus ESE

-5.5 C

-5.6 C

-5.4 C

-3.6 C

0 W/m

0.00 mm

05:00

-3.6 C

1002.9 hpa

86 %

3.2 km/h aus 115

8.0 km/h aus SE

-5.6 C

-4.6 C

-4.5 C

-3.7 C

0 W/m

0.00 mm

05:05

-3.7 C

1002.9 hpa

86 %

4.8 km/h aus 117

11.3 km/h aus SE

-5.7 C

-5.7 C

-5.6 C

-3.8 C

0 W/m

0.00 mm

05:10

-3.7 C

1002.9 hpa

86 %

1.6 km/h aus 113

6.4 km/h aus SE

-5.7 C

-3.8 C

-3.7 C

-3.8 C

0 W/m

0.00 mm

05:15

-3.7 C

1002.8 hpa

86 %

1.6 km/h aus 117

4.8 km/h aus SE

-5.7 C

-3.8 C

-3.7 C

-3.8 C

0 W/m

0.00 mm

05:20

-3.8 C

1002.8 hpa

86 %

1.6 km/h aus 117

6.4 km/h aus SE

-5.8 C

-3.9 C

-3.8 C

-3.9 C

0 W/m

0.00 mm

05:25

-4.0 C

1002.8 hpa

86 %

3.2 km/h aus 117

6.4 km/h aus SE

-6.0 C

-5.1 C

-4.9 C

-4.1 C

0 W/m

0.00 mm

05:30

-4.0 C

1002.7 hpa

86 %

3.2 km/h aus 118

6.4 km/h aus SE

-6.0 C

-5.1 C

-4.9 C

-4.1 C

0 W/m

0.00 mm

05:35

-4.0 C

1002.7 hpa

87 %

3.2 km/h aus 117

6.4 km/h aus SE

-5.8 C

-5.1 C

-4.9 C

-4.1 C

0 W/m

0.00 mm

05:40

-4.0 C

1002.7 hpa

87 %

1.6 km/h aus 117

4.8 km/h aus SE

-5.8 C

-4.1 C

-4.0 C

-4.1 C

0 W/m

0.00 mm

05:45

-4.1 C

1002.7 hpa

87 %

3.2 km/h aus 116

6.4 km/h aus SE

-5.9 C

-5.2 C

-5.1 C

-4.2 C

0 W/m

0.00 mm

05:50

-4.1 C

1002.7 hpa

86 %

3.2 km/h aus 116

8.0 km/h aus SE

-6.1 C

-5.2 C

-5.1 C

-4.2 C

0 W/m

0.00 mm

05:55

-4.2 C

1002.7 hpa

86 %

3.2 km/h aus 117

6.4 km/h aus SE

-6.2 C

-5.3 C

-5.2 C

-4.3 C

0 W/m

0.00 mm

06:00

-4.2 C

1002.7 hpa

87 %

4.8 km/h aus 116

11.3 km/h aus ESE

-6.1 C

-6.4 C

-6.3 C

-4.3 C

0 W/m

0.00 mm

06:05

-4.2 C

1002.7 hpa

87 %

4.8 km/h aus 115

9.7 km/h aus ESE

-6.1 C

-6.4 C

-6.3 C

-4.3 C

0 W/m

0.00 mm

06:10

-4.3 C

1002.7 hpa

87 %

3.2 km/h aus 116

6.4 km/h aus ESE

-6.1 C

-5.4 C

-5.3 C

-4.4 C

0 W/m

0.00 mm

06:15

-4.3 C

1002.7 hpa

87 %

6.4 km/h aus 117

11.3 km/h aus E

-6.2 C

-7.3 C

-7.2 C

-4.4 C

0 W/m

0.00 mm

06:20

-4.4 C

1002.7 hpa

87 %

4.8 km/h aus 115

8.0 km/h aus E

-6.2 C

-6.6 C

-6.4 C

-4.5 C

0 W/m

0.00 mm

06:25

-4.4 C

1002.7 hpa

87 %

6.4 km/h aus 117

11.3 km/h aus ESE

-6.3 C

-7.4 C

-7.3 C

-4.6 C

0 W/m

0.00 mm

06:30

-4.5 C

1002.6 hpa

87 %

4.8 km/h aus 116

9.7 km/h aus ESE

-6.3 C

-6.7 C

-6.6 C

-4.6 C

0 W/m

0.00 mm

06:35

-4.6 C

1002.6 hpa

87 %

6.4 km/h aus 118

14.5 km/h aus E

-6.4 C

-7.6 C

-7.4 C

-4.7 C

0 W/m

0.00 mm

06:40

-4.6 C

1002.6 hpa

87 %

8.0 km/h aus 116

17.7 km/h aus ESE

-6.4 C

-8.2 C

-8.1 C

-4.7 C

0 W/m

0.00 mm

06:45

-4.7 C

1002.6 hpa

87 %

8.0 km/h aus 116

14.5 km/h aus ESE

-6.5 C

-8.3 C

-8.2 C

-4.8 C

0 W/m

0.00 mm

06:50

-4.7 C

1002.6 hpa

87 %

9.7 km/h aus 116

17.7 km/h aus ESE

-6.5 C

-8.9 C

-8.8 C

-4.8 C

0 W/m

0.00 mm

06:55

-4.6 C

1002.6 hpa

87 %

8.0 km/h aus 117

16.1 km/h aus ESE

-6.4 C

-8.3 C

-8.2 C

-4.7 C

0 W/m

0.00 mm

07:00

-4.6 C

1002.5 hpa

88 %

9.7 km/h aus 117

17.7 km/h aus ESE

-6.2 C

-8.7 C

-8.6 C

-4.6 C

0 W/m

0.00 mm

07:05

-4.6 C

1002.5 hpa

88 %

8.0 km/h aus 117

14.5 km/h aus ESE

-6.2 C

-8.2 C

-8.1 C

-4.6 C

0 W/m

0.00 mm

07:10

-4.6 C

1002.5 hpa

88 %

6.4 km/h aus 117

16.1 km/h aus ESE

-6.2 C

-7.5 C

-7.4 C

-4.6 C

0 W/m

0.00 mm

07:15

-4.6 C

1002.3 hpa

88 %

8.0 km/h aus 117

17.7 km/h aus ESE

-6.3 C

-8.2 C

-8.2 C

-4.7 C

0 W/m

0.00 mm

07:20

-4.7 C

1002.3 hpa

87 %

6.4 km/h aus 116

17.7 km/h aus SE

-6.5 C

-7.7 C

-7.6 C

-4.8 C

0 W/m

0.00 mm

07:25

-4.7 C

1002.3 hpa

87 %

8.0 km/h aus 116

14.5 km/h aus ESE

-6.6 C

-8.4 C

-8.3 C

-4.8 C

0 W/m

0.00 mm

07:30

-4.8 C

1002.4 hpa

87 %

8.0 km/h aus 116

16.1 km/h aus ESE

-6.6 C

-8.4 C

-8.3 C

-4.9 C

0 W/m

0.00 mm

07:35

-4.8 C

1002.4 hpa

87 %

11.3 km/h aus 116

19.3 km/h aus SE

-6.7 C

-9.6 C

-9.4 C

-4.9 C

0 W/m

0.00 mm

07:40

-4.9 C

1002.4 hpa

87 %

9.7 km/h aus 118

17.7 km/h aus SE

-6.8 C

-9.2 C

-9.1 C

-5.1 C

0 W/m

0.00 mm

07:45

-4.9 C

1002.5 hpa

87 %

9.7 km/h aus 117

17.7 km/h aus SE

-6.8 C

-9.2 C

-9.1 C

-5.1 C

0 W/m

0.00 mm

07:50

-5.0 C

1002.5 hpa

87 %

12.9 km/h aus 117

19.3 km/h aus SE

-6.8 C

-10.2 C

-10.1 C

-5.1 C

0 W/m

0.00 mm

07:55

-4.9 C

1002.5 hpa

88 %

14.5 km/h aus 115

20.9 km/h aus SE

-6.6 C

-10.4 C

-10.4 C

-5.0 C

0 W/m

0.00 mm

08:00

-4.9 C

1002.5 hpa

88 %

14.5 km/h aus 116

20.9 km/h aus SSE

-6.6 C

-10.4 C

-10.4 C

-5.0 C

0 W/m

0.00 mm

08:05

-4.9 C

1002.5 hpa

88 %

14.5 km/h aus 116

25.7 km/h aus SSE

-6.6 C

-10.4 C

-10.3 C

-4.9 C

0 W/m

0.00 mm

08:10

-4.8 C

1002.5 hpa

88 %

14.5 km/h aus 116

22.5 km/h aus SSE

-6.5 C

-10.3 C

-10.2 C

-4.9 C

0 W/m

0.00 mm

08:15

-4.7 C

1002.5 hpa

88 %

16.1 km/h aus 116

29.0 km/h aus SE

-6.4 C

-10.5 C

-10.4 C

-4.8 C

0 W/m

0.00 mm

08:20

-4.6 C

1002.5 hpa

88 %

14.5 km/h aus 117

24.1 km/h aus SE

-6.3 C

-10.0 C

-9.9 C

-4.7 C

0 W/m

0.00 mm

08:25

-4.5 C

1002.5 hpa

88 %

14.5 km/h aus 117

29.0 km/h aus SE

-6.2 C

-9.9 C

-9.8 C

-4.6 C

0 W/m

0.00 mm

08:30

-4.3 C

1002.3 hpa

88 %

12.9 km/h aus 117

24.1 km/h aus SE

-6.0 C

-9.3 C

-9.3 C

-4.4 C

0 W/m

0.00 mm

08:35

-4.3 C

1002.3 hpa

88 %

12.9 km/h aus 117

22.5 km/h aus SE

-6.0 C

-9.2 C

-9.2 C

-4.3 C

0 W/m

0.00 mm

08:40

-4.2 C

1002.3 hpa

87 %

12.9 km/h aus 117

22.5 km/h aus SE

-6.1 C

-9.2 C

-9.1 C

-4.3 C

0 W/m

0.00 mm

08:45

-4.2 C

1002.4 hpa

87 %

14.5 km/h aus 117

20.9 km/h aus SSE

-6.0 C

-9.6 C

-9.4 C

-4.3 C

0 W/m

0.00 mm

08:50

-4.1 C

1002.4 hpa

87 %

14.5 km/h aus 115

22.5 km/h aus SE

-5.9 C

-9.4 C

-9.3 C

-4.2 C

0 W/m

0.00 mm

08:55

-4.0 C

1002.4 hpa

87 %

12.9 km/h aus 117

20.9 km/h aus SE

-5.8 C

-8.9 C

-8.8 C

-4.1 C

0 W/m

0.00 mm

09:00

-3.8 C

1002.3 hpa

87 %

11.3 km/h aus 117

20.9 km/h aus SSE

-5.7 C

-8.3 C

-8.2 C

-3.9 C

0 W/m

0.00 mm

09:05

-3.8 C

1002.3 hpa

87 %

8.0 km/h aus 116

17.7 km/h aus ESE

-5.6 C

-7.3 C

-7.2 C

-3.9 C

0 W/m

0.00 mm

09:10

-3.7 C

1002.3 hpa

86 %

6.4 km/h aus 117

11.3 km/h aus SE

-5.7 C

-6.6 C

-6.5 C

-3.8 C

0 W/m

0.00 mm

09:15

-3.7 C

1002.3 hpa

86 %

6.4 km/h aus 117

11.3 km/h aus ESE

-5.7 C

-6.5 C

-6.4 C

-3.8 C

0 W/m

0.00 mm

09:20

-3.4 C

1002.3 hpa

85 %

8.0 km/h aus 116

16.1 km/h aus SE

-5.6 C

-6.9 C

-6.8 C

-3.6 C

0 W/m

0.00 mm

09:25

-3.3 C

1002.3 hpa

85 %

8.0 km/h aus 117

17.7 km/h aus SE

-5.4 C

-6.7 C

-6.6 C

-3.4 C

0 W/m

0.00 mm

09:30

-3.2 C

1002.3 hpa

84 %

9.7 km/h aus 116

19.3 km/h aus SE

-5.5 C

-7.1 C

-7.0 C

-3.3 C

0 W/m

0.00 mm

09:35

-3.1 C

1002.3 hpa

84 %

11.3 km/h aus 117

22.5 km/h aus SE

-5.4 C

-7.4 C

-7.3 C

-3.2 C

0 W/m

0.00 mm

09:40

-3.0 C

1002.3 hpa

83 %

11.3 km/h aus 115

20.9 km/h aus SE

-5.5 C

-7.3 C

-7.2 C

-3.1 C

0 W/m

0.00 mm

09:45

-2.9 C

1002.5 hpa

83 %

12.9 km/h aus 117

20.9 km/h aus SSE

-5.4 C

-7.7 C

-7.6 C

-3.1 C

0 W/m

0.00 mm

09:50

-2.8 C

1002.5 hpa

83 %

11.3 km/h aus 115

22.5 km/h aus ESE

-5.3 C

-7.1 C

-6.9 C

-2.9 C

0 W/m

0.00 mm

09:55

-2.7 C

1002.5 hpa

83 %

12.9 km/h aus 118

20.9 km/h aus SSE

-5.2 C

-7.3 C

-7.2 C

-2.8 C

0 W/m

0.00 mm

10:00

-2.5 C

1002.5 hpa

82 %

11.3 km/h aus 117

19.3 km/h aus ESE

-5.2 C

-6.8 C

-6.6 C

-2.7 C

0 W/m

0.00 mm

10:05

-2.4 C

1002.5 hpa

82 %

12.9 km/h aus 117

22.5 km/h aus SE

-5.1 C

-7.1 C

-6.9 C

-2.6 C

0 W/m

0.00 mm

10:10

-2.3 C

1002.5 hpa

82 %

14.5 km/h aus 116

22.5 km/h aus ESE

-4.9 C

-7.3 C

-7.1 C

-2.4 C

0 W/m

0.00 mm

10:15

-2.3 C

1002.4 hpa

81 %

12.9 km/h aus 116

24.1 km/h aus ESE

-5.1 C

-6.9 C

-6.7 C

-2.4 C

0 W/m

0.00 mm

10:20

-2.2 C

1002.4 hpa

81 %

12.9 km/h aus 116

20.9 km/h aus ESE

-5.0 C

-6.8 C

-6.7 C

-2.4 C

0 W/m

0.00 mm

10:25

-2.2 C

1002.4 hpa

81 %

12.9 km/h aus 117

20.9 km/h aus ESE

-5.0 C

-6.8 C

-6.6 C

-2.3 C

0 W/m

0.00 mm

10:30

-2.2 C

1002.3 hpa

81 %

14.5 km/h aus 117

25.7 km/h aus SE

-5.0 C

-7.1 C

-6.9 C

-2.3 C

0 W/m

0.00 mm

10:35

-2.0 C

1002.3 hpa

81 %

14.5 km/h aus 117

24.1 km/h aus SE

-4.8 C

-6.9 C

-6.8 C

-2.2 C

0 W/m

0.00 mm

10:40

-1.8 C

1002.3 hpa

80 %

14.5 km/h aus 117

24.1 km/h aus ESE

-4.8 C

-6.7 C

-6.6 C

-2.0 C

0 W/m

0.00 mm

10:45

-1.8 C

1002.3 hpa

80 %

11.3 km/h aus 117

19.3 km/h aus SSE

-4.8 C

-5.9 C

-5.8 C

-1.9 C

0 W/m

0.00 mm

10:50

-1.7 C

1002.3 hpa

79 %

11.3 km/h aus 117

20.9 km/h aus ESE

-4.9 C

-5.8 C

-5.7 C

-1.9 C

0 W/m

0.00 mm

10:55

-1.6 C

1002.3 hpa

80 %

14.5 km/h aus 118

22.5 km/h aus SE

-4.6 C

-6.4 C

-6.3 C

-1.8 C

0 W/m

0.00 mm

11:00

-1.4 C

1002.3 hpa

79 %

11.3 km/h aus 117

20.9 km/h aus SE

-4.6 C

-5.4 C

-5.3 C

-1.6 C

0 W/m

0.00 mm

11:05

-1.3 C

1002.3 hpa

79 %

12.9 km/h aus 116

20.9 km/h aus SE

-4.5 C

-5.8 C

-5.6 C

-1.5 C

0 W/m

0.00 mm

11:10

-1.2 C

1002.3 hpa

79 %

11.3 km/h aus 117

19.3 km/h aus ESE

-4.4 C

-5.3 C

-5.1 C

-1.4 C

0 W/m

0.00 mm

11:15

-1.1 C

1002.2 hpa

78 %

9.7 km/h aus 117

19.3 km/h aus ESE

-4.5 C

-4.7 C

-4.6 C

-1.3 C

0 W/m

0.00 mm

11:20

-0.9 C

1002.2 hpa

78 %

11.3 km/h aus 117

19.3 km/h aus SE

-4.3 C

-4.9 C

-4.8 C

-1.1 C

0 W/m

0.00 mm

11:25

-0.7 C

1002.2 hpa

77 %

9.7 km/h aus 116

17.7 km/h aus SE

-4.3 C

-4.3 C

-4.1 C

-0.9 C

0 W/m

0.00 mm

11:30

-0.7 C

1002.2 hpa

77 %

9.7 km/h aus 117

19.3 km/h aus SE

-4.3 C

-4.3 C

-4.1 C

-0.9 C

0 W/m

0.00 mm

11:35

-0.6 C

1002.2 hpa

77 %

11.3 km/h aus 117

17.7 km/h aus E

-4.1 C

-4.6 C

-4.3 C

-0.8 C

0 W/m

0.00 mm

11:40

-0.5 C

1002.2 hpa

76 %

11.3 km/h aus 117

19.3 km/h aus ESE

-4.2 C

-4.4 C

-4.2 C

-0.7 C

0 W/m

0.00 mm

11:45

-0.3 C

1002.2 hpa

76 %

9.7 km/h aus 115

17.7 km/h aus ESE

-4.1 C

-3.8 C

-3.6 C

-0.6 C

0 W/m

0.00 mm

11:50

-0.1 C

1002.2 hpa

76 %

8.0 km/h aus 116

14.5 km/h aus ESE

-3.8 C

-3.1 C

-2.9 C

-0.3 C

0 W/m

0.00 mm

11:55

0.0 C

1002.2 hpa

75 %

9.7 km/h aus 117

17.7 km/h aus ESE

-3.9 C

-3.4 C

-3.2 C

-0.2 C

0 W/m

0.00 mm

12:00

0.2 C

1002.2 hpa

75 %

8.0 km/h aus 118

16.1 km/h aus ESE

-3.7 C

-2.7 C

-2.5 C

0.0 C

0 W/m

0.00 mm

12:05

0.3 C

1002.2 hpa

74 %

9.7 km/h aus 117

19.3 km/h aus ESE

-3.8 C

-3.1 C

-2.8 C

0.1 C

0 W/m

0.00 mm

12:10

0.3 C

1002.2 hpa

74 %

11.3 km/h aus 117

20.9 km/h aus SSE

-3.8 C

-3.5 C

-3.3 C

0.1 C

0 W/m

0.00 mm

12:15

0.2 C

1002.2 hpa

74 %

12.9 km/h aus 117

20.9 km/h aus SE

-3.9 C

-3.9 C

-3.7 C

0.0 C

0 W/m

0.00 mm

12:20

0.3 C

1002.2 hpa

74 %

9.7 km/h aus 115

19.3 km/h aus ESE

-3.8 C

-3.1 C

-2.9 C

0.1 C

0 W/m

0.00 mm

12:25

0.3 C

1002.2 hpa

74 %

11.3 km/h aus 117

20.9 km/h aus ESE

-3.8 C

-3.4 C

-3.2 C

0.1 C

0 W/m

0.00 mm

12:30

0.4 C

1002.2 hpa

74 %

14.5 km/h aus 116

19.3 km/h aus E

-3.7 C

-4.1 C

-3.8 C

0.2 C

0 W/m

0.00 mm

12:35

0.4 C

1002.2 hpa

73 %

12.9 km/h aus 114

22.5 km/h aus E

-3.8 C

-3.7 C

-3.4 C

0.2 C

0 W/m

0.00 mm

12:40

0.6 C

1002.2 hpa

73 %

11.3 km/h aus 116

22.5 km/h aus E

-3.7 C

-3.2 C

-2.9 C

0.3 C

0 W/m

0.00 mm

12:45

0.6 C

1002.0 hpa

73 %

12.9 km/h aus 117

20.9 km/h aus E

-3.7 C

-3.5 C

-3.3 C

0.3 C

0 W/m

0.00 mm

12:50

0.6 C

1002.0 hpa

73 %

8.0 km/h aus 115

14.5 km/h aus E

-3.7 C

-2.2 C

-2.0 C

0.4 C

0 W/m

0.00 mm

12:55

0.8 C

1002.0 hpa

72 %

11.3 km/h aus 116

19.3 km/h aus ESE

-3.7 C

-2.9 C

-2.7 C

0.5 C

0 W/m

0.00 mm

13:00

0.7 C

1001.8 hpa

72 %

12.9 km/h aus 116

20.9 km/h aus SE

-3.8 C

-3.4 C

-3.2 C

0.4 C

0 W/m

0.00 mm

13:05

0.8 C

1001.8 hpa

72 %

12.9 km/h aus 118

22.5 km/h aus E

-3.7 C

-3.3 C

-3.0 C

0.5 C

0 W/m

0.00 mm

13:10

0.7 C

1001.8 hpa

72 %

9.7 km/h aus 117

16.1 km/h aus SE

-3.8 C

-2.6 C

-2.3 C

0.4 C

0 W/m

0.00 mm

13:15

0.8 C

1001.7 hpa

72 %

11.3 km/h aus 116

22.5 km/h aus ESE

-3.7 C

-2.9 C

-2.7 C

0.5 C

0 W/m

0.00 mm

13:20

0.9 C

1001.7 hpa

72 %

9.7 km/h aus 116

19.3 km/h aus ESE

-3.6 C

-2.4 C

-2.2 C

0.6 C

0 W/m

0.00 mm

13:25

0.7 C

1001.7 hpa

72 %

9.7 km/h aus 117

20.9 km/h aus SE

-3.8 C

-2.6 C

-2.3 C

0.4 C

0 W/m

0.00 mm

13:30

0.8 C

1001.7 hpa

72 %

11.3 km/h aus 117

19.3 km/h aus ESE

-3.7 C

-2.9 C

-2.7 C

0.5 C

0 W/m

0.00 mm

13:35

0.7 C

1001.7 hpa

72 %

12.9 km/h aus 117

24.1 km/h aus ESE

-3.8 C

-3.4 C

-3.1 C

0.4 C

0 W/m

0.00 mm

13:40

0.8 C

1001.7 hpa

71 %

12.9 km/h aus 117

20.9 km/h aus ESE

-3.9 C

-3.3 C

-3.0 C

0.5 C

0 W/m

0.00 mm

13:45

0.9 C

1001.7 hpa

71 %

11.3 km/h aus 117

19.3 km/h aus ESE

-3.8 C

-2.8 C

-2.6 C

0.6 C

0 W/m

0.00 mm

13:50

1.1 C

1001.7 hpa

70 %

9.7 km/h aus 117

20.9 km/h aus ENE

-3.8 C

-2.2 C

-1.9 C

0.8 C

0 W/m

0.00 mm

13:55

1.1 C

1001.7 hpa

71 %

11.3 km/h aus 116

17.7 km/h aus SE

-3.6 C

-2.6 C

-2.3 C

0.8 C

0 W/m

0.00 mm

14:00

0.9 C

1001.7 hpa

70 %

9.7 km/h aus 116

17.7 km/h aus SSE

-4.0 C

-2.4 C

-2.2 C

0.6 C

0 W/m

0.00 mm

14:05

1.0 C

1001.7 hpa

71 %

11.3 km/h aus 117

20.9 km/h aus ESE

-3.7 C

-2.7 C

-2.4 C

0.7 C

0 W/m

0.00 mm

14:10

1.1 C

1001.7 hpa

69 %

8.0 km/h aus 118

17.7 km/h aus ESE

-4.0 C

-1.8 C

-1.5 C

0.8 C

0 W/m

0.00 mm

14:15

1.1 C

1001.6 hpa

69 %

8.0 km/h aus 117

20.9 km/h aus SE

-4.0 C

-1.8 C

-1.5 C

0.8 C

0 W/m

0.00 mm

14:20

1.2 C

1001.6 hpa

70 %

9.7 km/h aus 117

20.9 km/h aus ESE

-3.7 C

-2.1 C

-1.8 C

0.9 C

0 W/m

0.00 mm

14:25

1.2 C

1001.6 hpa

69 %

8.0 km/h aus 117

14.5 km/h aus E

-3.9 C

-1.7 C

-1.4 C

0.9 C

0 W/m

0.00 mm

14:30

1.3 C

1001.3 hpa

69 %

9.7 km/h aus 117

16.1 km/h aus E

-3.7 C

-1.9 C

-1.6 C

1.1 C

0 W/m

0.00 mm

14:35

1.2 C

1001.3 hpa

69 %

8.0 km/h aus 117

16.1 km/h aus ESE

-3.8 C

-1.6 C

-1.3 C

0.9 C

0 W/m

0.00 mm

14:40

1.2 C

1001.3 hpa

69 %

8.0 km/h aus 117

16.1 km/h aus E

-3.8 C

-1.6 C

-1.3 C

0.9 C

0 W/m

0.00 mm

14:45

1.3 C

1001.2 hpa

69 %

8.0 km/h aus 116

16.1 km/h aus E

-3.8 C

-1.5 C

-1.2 C

1.0 C

0 W/m

0.00 mm

14:50

1.3 C

1001.2 hpa

69 %

11.3 km/h aus 117

20.9 km/h aus ENE

-3.7 C

-2.3 C

-2.0 C

1.1 C

0 W/m

0.00 mm

14:55

1.3 C

1001.2 hpa

68 %

8.0 km/h aus 117

19.3 km/h aus ESE

-3.9 C

-1.4 C

-1.2 C

1.1 C

0 W/m

0.00 mm

15:00

1.3 C

1001.2 hpa

68 %

8.0 km/h aus 115

16.1 km/h aus E

-3.9 C

-1.4 C

-1.2 C

1.1 C

0 W/m

0.00 mm

15:05

1.3 C

1001.2 hpa

68 %

6.4 km/h aus 116

14.5 km/h aus ESE

-3.9 C

-0.9 C

-0.7 C

1.1 C

0 W/m

0.00 mm

15:10

1.3 C

1001.2 hpa

67 %

4.8 km/h aus 118

9.7 km/h aus ESE

-4.1 C

-0.3 C

0.0 C

1.0 C

0 W/m

0.00 mm

15:15

1.2 C

1001.2 hpa

68 %

8.0 km/h aus 117

14.5 km/h aus ESE

-4.0 C

-1.6 C

-1.3 C

0.9 C

0 W/m

0.00 mm

15:20

1.2 C

1001.2 hpa

69 %

6.4 km/h aus 116

11.3 km/h aus ESE

-3.8 C

-1.1 C

-0.8 C

0.9 C

0 W/m

0.00 mm

15:25

1.2 C

1001.2 hpa

68 %

6.4 km/h aus 117

14.5 km/h aus ESE

-4.1 C

-1.1 C

-0.8 C

0.9 C

0 W/m

0.00 mm

15:30

1.1 C

1001.2 hpa

69 %

8.0 km/h aus 117

14.5 km/h aus ESE

-4.0 C

-1.8 C

-1.5 C

0.8 C

0 W/m

0.00 mm

15:35

0.9 C

1001.2 hpa

69 %

9.7 km/h aus 117

19.3 km/h aus SE

-4.1 C

-2.3 C

-2.1 C

0.7 C

0 W/m

0.00 mm

15:40

0.8 C

1001.2 hpa

70 %

8.0 km/h aus 116

16.1 km/h aus E

-4.1 C

-2.1 C

-1.8 C

0.5 C

0 W/m

0.00 mm

15:45

0.7 C

1001.0 hpa

69 %

8.0 km/h aus 117

16.1 km/h aus ESE

-4.3 C

-2.2 C

-1.9 C

0.4 C

0 W/m

0.00 mm

15:50

0.5 C

1001.0 hpa

70 %

9.7 km/h aus 117

17.7 km/h aus SE

-4.3 C

-2.9 C

-2.6 C

0.2 C

0 W/m

0.00 mm

15:55

0.3 C

1001.0 hpa

70 %

6.4 km/h aus 117

12.9 km/h aus SE

-4.5 C

-2.1 C

-1.8 C

0.1 C

0 W/m

0.00 mm

16:00

0.2 C

1001.0 hpa

71 %

9.7 km/h aus 117

17.7 km/h aus ESE

-4.4 C

-3.2 C

-2.9 C

-0.1 C

0 W/m

0.00 mm

16:05

0.2 C

1001.0 hpa

70 %

9.7 km/h aus 117

17.7 km/h aus ESE

-4.7 C

-3.3 C

-3.0 C

-0.1 C

0 W/m

0.00 mm

16:10

0.1 C

1001.0 hpa

70 %

8.0 km/h aus 117

17.7 km/h aus SSE

-4.8 C

-2.9 C

-2.7 C

-0.2 C

0 W/m

0.00 mm

16:15

-0.1 C

1000.9 hpa

70 %

11.3 km/h aus 118

20.9 km/h aus SE

-4.9 C

-3.9 C

-3.7 C

-0.3 C

0 W/m

0.00 mm

16:20

-0.3 C

1000.9 hpa

70 %

8.0 km/h aus 116

17.7 km/h aus ESE

-5.1 C

-3.3 C

-3.1 C

-0.6 C

0 W/m

0.00 mm

16:25

-0.4 C

1000.9 hpa

72 %

8.0 km/h aus 117

19.3 km/h aus SE

-4.8 C

-3.4 C

-3.2 C

-0.7 C

0 W/m

0.00 mm

16:30

-0.4 C

1000.9 hpa

72 %

11.3 km/h aus 116

19.3 km/h aus SE

-4.9 C

-4.4 C

-4.2 C

-0.7 C

0 W/m

0.00 mm

16:35

-0.5 C

1000.9 hpa

72 %

8.0 km/h aus 114

19.3 km/h aus SSE

-4.9 C

-3.6 C

-3.3 C

-0.8 C

0 W/m

0.00 mm

16:40

-0.7 C

1000.9 hpa

72 %

9.7 km/h aus 116

19.3 km/h aus SE

-5.1 C

-4.3 C

-4.0 C

-0.9 C

0 W/m

0.00 mm

16:45

-0.7 C

1000.7 hpa

72 %

8.0 km/h aus 117

17.7 km/h aus SE

-5.1 C

-3.9 C

-3.6 C

-1.0 C

0 W/m

0.00 mm

16:50

-0.8 C

1000.7 hpa

73 %

9.7 km/h aus 116

17.7 km/h aus SE

-5.0 C

-4.3 C

-4.1 C

-1.0 C

0 W/m

0.00 mm

16:55

-0.8 C

1000.7 hpa

73 %

9.7 km/h aus 117

19.3 km/h aus SE

-5.1 C

-4.4 C

-4.2 C

-1.1 C

0 W/m

0.00 mm

17:00

-1.0 C

1000.8 hpa

73 %

6.4 km/h aus 117

14.5 km/h aus SE

-5.2 C

-3.6 C

-3.3 C

-1.2 C

0 W/m

0.00 mm

17:05

-1.1 C

1000.8 hpa

73 %

8.0 km/h aus 117

16.1 km/h aus SE

-5.3 C

-4.2 C

-4.0 C

-1.3 C

0 W/m

0.00 mm

17:10

-1.3 C

1000.8 hpa

74 %

6.4 km/h aus 117

14.5 km/h aus SE

-5.3 C

-3.9 C

-3.7 C

-1.5 C

0 W/m

0.00 mm

17:15

-1.4 C

1000.7 hpa

74 %

8.0 km/h aus 117

19.3 km/h aus ESE

-5.5 C

-4.7 C

-4.4 C

-1.7 C

0 W/m

0.00 mm

17:20

-1.4 C

1000.7 hpa

74 %

9.7 km/h aus 118

17.7 km/h aus ESE

-5.5 C

-5.2 C

-4.9 C

-1.7 C

0 W/m

0.00 mm

17:25

-1.4 C

1000.7 hpa

74 %

8.0 km/h aus 117

16.1 km/h aus E

-5.4 C

-4.6 C

-4.4 C

-1.6 C

0 W/m

0.00 mm

17:30

-1.6 C

1000.8 hpa

74 %

8.0 km/h aus 117

16.1 km/h aus ESE

-5.6 C

-4.8 C

-4.6 C

-1.8 C

0 W/m

0.00 mm

17:35

-1.8 C

1000.8 hpa

74 %

6.4 km/h aus 117

14.5 km/h aus SE

-5.8 C

-4.4 C

-4.2 C

-2.0 C

0 W/m

0.00 mm

17:40

-1.8 C

1000.8 hpa

75 %

6.4 km/h aus 115

14.5 km/h aus ESE

-5.7 C

-4.5 C

-4.3 C

-2.1 C

0 W/m

0.00 mm

17:45

-1.9 C

1000.8 hpa

76 %

6.4 km/h aus 117

12.9 km/h aus ESE

-5.6 C

-4.7 C

-4.4 C

-2.2 C

0 W/m

0.00 mm

17:50

-1.9 C

1000.8 hpa

76 %

4.8 km/h aus 117

9.7 km/h aus ESE

-5.6 C

-3.9 C

-3.7 C

-2.2 C

0 W/m

0.00 mm

17:55

-2.0 C

1000.8 hpa

76 %

8.0 km/h aus 116

11.3 km/h aus ESE

-5.7 C

-5.3 C

-5.1 C

-2.2 C

0 W/m

0.00 mm

18:00

-2.1 C

1000.7 hpa

76 %

4.8 km/h aus 117

11.3 km/h aus SE

-5.7 C

-4.1 C

-3.8 C

-2.3 C

0 W/m

0.00 mm

18:05

-2.2 C

1000.7 hpa

76 %

6.4 km/h aus 117

17.7 km/h aus ESE

-5.8 C

-4.9 C

-4.7 C

-2.4 C

0 W/m

0.00 mm

18:10

-2.2 C

1000.7 hpa

76 %

6.4 km/h aus 116

11.3 km/h aus ESE

-5.8 C

-4.9 C

-4.7 C

-2.4 C

0 W/m

0.00 mm

18:15

-2.2 C

1000.6 hpa

76 %

6.4 km/h aus 117

11.3 km/h aus ESE

-5.8 C

-4.9 C

-4.7 C

-2.4 C

0 W/m

0.00 mm

18:20

-2.2 C

1000.6 hpa

76 %

4.8 km/h aus 116

8.0 km/h aus E

-5.9 C

-4.2 C

-4.0 C

-2.4 C

0 W/m

0.00 mm

18:25

-2.3 C

1000.6 hpa

77 %

4.8 km/h aus 118

11.3 km/h aus ESE

-5.8 C

-4.3 C

-4.1 C

-2.6 C

0 W/m

0.00 mm

18:30

-2.5 C

1000.7 hpa

76 %

4.8 km/h aus 116

9.7 km/h aus ESE

-6.2 C

-4.6 C

-4.3 C

-2.7 C

0 W/m

0.00 mm

18:35

-2.6 C

1000.7 hpa

77 %

4.8 km/h aus 117

11.3 km/h aus E

-6.0 C

-4.6 C

-4.4 C

-2.8 C

0 W/m

0.00 mm

18:40

-2.6 C

1000.7 hpa

77 %

4.8 km/h aus 116

9.7 km/h aus E

-6.0 C

-4.6 C

-4.4 C

-2.8 C

0 W/m

0.00 mm

18:45

-2.6 C

1000.6 hpa

77 %

4.8 km/h aus 116

8.0 km/h aus ESE

-6.0 C

-4.6 C

-4.4 C

-2.8 C

0 W/m

0.00 mm

18:50

-2.7 C

1000.6 hpa

77 %

3.2 km/h aus 116

6.4 km/h aus ESE

-6.2 C

-3.8 C

-3.6 C

-2.9 C

0 W/m

0.00 mm

18:55

-2.8 C

1000.6 hpa

78 %

4.8 km/h aus 117

8.0 km/h aus ESE

-6.1 C

-4.8 C

-4.6 C

-2.9 C

0 W/m

0.00 mm

19:00

-2.8 C

1000.6 hpa

78 %

4.8 km/h aus 117

8.0 km/h aus ESE

-6.1 C

-4.9 C

-4.7 C

-3.0 C

0 W/m

0.00 mm

19:05

-2.9 C

1000.6 hpa

78 %

4.8 km/h aus 117

9.7 km/h aus ESE

-6.2 C

-4.9 C

-4.8 C

-3.1 C

0 W/m

0.00 mm

19:10

-3.0 C

1000.6 hpa

78 %

4.8 km/h aus 117

9.7 km/h aus ESE

-6.3 C

-5.1 C

-4.9 C

-3.2 C

0 W/m

0.00 mm

19:15

-3.1 C

1000.6 hpa

78 %

4.8 km/h aus 117

8.0 km/h aus ESE

-6.4 C

-5.1 C

-4.9 C

-3.2 C

0 W/m

0.00 mm

19:20

-3.1 C

1000.6 hpa

78 %

4.8 km/h aus 117

8.0 km/h aus ESE

-6.4 C

-5.1 C

-4.9 C

-3.2 C

0 W/m

0.00 mm

19:25

-3.0 C

1000.6 hpa

79 %

4.8 km/h aus 117

8.0 km/h aus ESE

-6.1 C

-5.1 C

-4.9 C

-3.2 C

0 W/m

0.00 mm

19:30

-3.2 C

1000.6 hpa

79 %

3.2 km/h aus 118

4.8 km/h aus ESE

-6.3 C

-4.2 C

-4.1 C

-3.3 C

0 W/m

0.00 mm

19:35

-3.2 C

1000.6 hpa

79 %

3.2 km/h aus 116

8.0 km/h aus E

-6.3 C

-4.2 C

-4.1 C

-3.3 C

0 W/m

0.00 mm

19:40

-3.3 C

1000.6 hpa

79 %

3.2 km/h aus 117

9.7 km/h aus E

-6.5 C

-4.4 C

-4.2 C

-3.5 C

0 W/m

0.00 mm

19:45

-3.3 C

1000.6 hpa

79 %

4.8 km/h aus 115

8.0 km/h aus E

-6.4 C

-5.4 C

-5.2 C

-3.4 C

0 W/m

0.00 mm

19:50

-3.2 C

1000.6 hpa

80 %

4.8 km/h aus 117

8.0 km/h aus E

-6.1 C

-5.2 C

-5.1 C

-3.3 C

0 W/m

0.00 mm

19:55

-3.1 C

1000.6 hpa

80 %

6.4 km/h aus 115

9.7 km/h aus E

-6.1 C

-5.9 C

-5.8 C

-3.3 C

0 W/m

0.00 mm

20:00

-3.1 C

1000.5 hpa

80 %

4.8 km/h aus 116

8.0 km/h aus E

-6.0 C

-5.1 C

-4.9 C

-3.2 C

0 W/m

0.00 mm

20:05

-3.0 C

1000.5 hpa

80 %

4.8 km/h aus 117

9.7 km/h aus E

-6.0 C

-5.1 C

-4.9 C

-3.2 C

0 W/m

0.00 mm

20:10

-3.0 C

1000.5 hpa

80 %

3.2 km/h aus 116

6.4 km/h aus E

-6.0 C

-4.1 C

-3.9 C

-3.2 C

0 W/m

0.00 mm

20:15

-3.1 C

1000.4 hpa

80 %

4.8 km/h aus 116

8.0 km/h aus E

-6.0 C

-5.1 C

-4.9 C

-3.2 C

0 W/m

0.00 mm

20:20

-3.2 C

1000.4 hpa

80 %

4.8 km/h aus 116

8.0 km/h aus E

-6.1 C

-5.2 C

-5.1 C

-3.3 C

0 W/m

0.00 mm

20:25

-3.2 C

1000.4 hpa

81 %

4.8 km/h aus 117

8.0 km/h aus E

-6.0 C

-5.2 C

-5.1 C

-3.3 C

0 W/m

0.00 mm

20:30

-3.2 C

1000.3 hpa

81 %

3.2 km/h aus 115

8.0 km/h aus E

-6.0 C

-4.2 C

-4.1 C

-3.3 C

0 W/m

0.00 mm

20:35

-3.2 C

1000.3 hpa

81 %

3.2 km/h aus 117

8.0 km/h aus E

-6.0 C

-4.3 C

-4.1 C

-3.4 C

0 W/m

0.00 mm

20:40

-3.2 C

1000.3 hpa

81 %

3.2 km/h aus 116

8.0 km/h aus E

-6.0 C

-4.3 C

-4.1 C

-3.4 C

0 W/m

0.00 mm

20:45

-3.3 C

1000.2 hpa

81 %

3.2 km/h aus 117

9.7 km/h aus E

-6.1 C

-4.3 C

-4.2 C

-3.4 C

0 W/m

0.00 mm

20:50

-3.3 C

1000.2 hpa

81 %

1.6 km/h aus 117

8.0 km/h aus E

-6.1 C

-3.5 C

-3.3 C

-3.5 C

0 W/m

0.00 mm

20:55

-3.5 C

1000.2 hpa

81 %

1.6 km/h aus 117

4.8 km/h aus E

-6.3 C

-3.7 C

-3.5 C

-3.7 C

0 W/m

0.00 mm

21:00

-3.7 C

1000.2 hpa

81 %

1.6 km/h aus 117

4.8 km/h aus E

-6.5 C

-3.8 C

-3.7 C

-3.8 C

0 W/m

0.00 mm

21:05

-3.8 C

1000.2 hpa

82 %

1.6 km/h aus 116

3.2 km/h aus E

-6.4 C

-3.9 C

-3.8 C

-3.9 C

0 W/m

0.00 mm

21:10

-3.9 C

1000.2 hpa

82 %

1.6 km/h aus 117

3.2 km/h aus E

-6.5 C

-4.1 C

-3.9 C

-4.1 C

0 W/m

0.00 mm

21:15

-3.9 C

1000.2 hpa

82 %

1.6 km/h aus 117

4.8 km/h aus E

-6.6 C

-4.1 C

-3.9 C

-4.1 C

0 W/m

0.00 mm

21:20

-4.1 C

1000.2 hpa

83 %

1.6 km/h aus 117

3.2 km/h aus E

-6.5 C

-4.2 C

-4.1 C

-4.2 C

0 W/m

0.00 mm

21:25

-4.2 C

1000.2 hpa

83 %

0.0 km/h aus 116

3.2 km/h aus E

-6.6 C

-4.3 C

-4.2 C

-4.3 C

0 W/m

0.00 mm

21:30

-4.3 C

1000.1 hpa

83 %

1.6 km/h aus 116

4.8 km/h aus E

-6.8 C

-4.4 C

-4.3 C

-4.4 C

0 W/m

0.00 mm

21:35

-4.6 C

1000.1 hpa

83 %

1.6 km/h aus 116

4.8 km/h aus E

-7.1 C

-4.7 C

-4.6 C

-4.7 C

0 W/m

0.00 mm

21:40

-4.7 C

1000.1 hpa

84 %

3.2 km/h aus 118

6.4 km/h aus E

-7.0 C

-5.8 C

-5.7 C

-4.8 C

0 W/m

0.00 mm

21:45

-4.6 C

1000.1 hpa

84 %

1.6 km/h aus 117

6.4 km/h aus E

-6.9 C

-4.7 C

-4.6 C

-4.7 C

0 W/m

0.00 mm

21:50

-4.7 C

1000.1 hpa

84 %

1.6 km/h aus 117

4.8 km/h aus E

-7.0 C

-4.8 C

-4.7 C

-4.8 C

0 W/m

0.00 mm

21:55

-4.9 C

1000.1 hpa

84 %

1.6 km/h aus 117

4.8 km/h aus E

-7.2 C

-5.0 C

-4.9 C

-5.0 C

0 W/m

0.00 mm

22:00

-5.1 C

1000.1 hpa

84 %

3.2 km/h aus 117

4.8 km/h aus E

-7.4 C

-6.3 C

-6.2 C

-5.2 C

0 W/m

0.00 mm

22:05

-4.9 C

1000.1 hpa

85 %

1.6 km/h aus 115

6.4 km/h aus E

-7.1 C

-5.1 C

-4.9 C

-5.1 C

0 W/m

0.00 mm

22:10

-4.9 C

1000.1 hpa

84 %

1.6 km/h aus 117

3.2 km/h aus E

-7.2 C

-5.1 C

-4.9 C

-5.1 C

0 W/m

0.00 mm

22:15

-5.1 C

1000.1 hpa

84 %

1.6 km/h aus 116

4.8 km/h aus E

-7.4 C

-5.2 C

-5.1 C

-5.2 C

0 W/m

0.00 mm

22:20

-5.3 C

1000.1 hpa

84 %

3.2 km/h aus 117

9.7 km/h aus ENE

-7.6 C

-6.5 C

-6.4 C

-5.4 C

0 W/m

0.00 mm

22:25

-5.2 C

1000.1 hpa

84 %

4.8 km/h aus 116

9.7 km/h aus E

-7.5 C

-7.5 C

-7.4 C

-5.3 C

0 W/m

0.00 mm

22:30

-4.9 C

1000.0 hpa

84 %

6.4 km/h aus 117

12.9 km/h aus ESE

-7.2 C

-8.0 C

-7.9 C

-5.1 C

0 W/m

0.00 mm

22:35

-4.8 C

1000.0 hpa

84 %

6.4 km/h aus 117

16.1 km/h aus E

-7.1 C

-7.8 C

-7.7 C

-4.9 C

0 W/m

0.00 mm

22:40

-4.6 C

1000.0 hpa

83 %

6.4 km/h aus 116

11.3 km/h aus E

-7.1 C

-7.6 C

-7.5 C

-4.7 C

0 W/m

0.00 mm

22:45

-4.5 C

999.9 hpa

82 %

6.4 km/h aus 118

16.1 km/h aus ESE

-7.1 C

-7.6 C

-7.4 C

-4.7 C

0 W/m

0.00 mm

22:50

-4.5 C

999.9 hpa

82 %

6.4 km/h aus 117

11.3 km/h aus ESE

-7.1 C

-7.6 C

-7.4 C

-4.7 C

0 W/m

0.00 mm

22:55

-4.4 C

999.9 hpa

82 %

6.4 km/h aus 116

16.1 km/h aus E

-7.1 C

-7.5 C

-7.3 C

-4.6 C

0 W/m

0.00 mm

23:00

-4.4 C

999.6 hpa

82 %

8.0 km/h aus 117

14.5 km/h aus E

-7.0 C

-8.1 C

-7.9 C

-4.6 C

0 W/m

0.00 mm

23:05

-4.3 C

999.6 hpa

81 %

4.8 km/h aus 117

9.7 km/h aus ESE

-7.1 C

-6.5 C

-6.3 C

-4.4 C

0 W/m

0.00 mm

23:10

-4.4 C

999.6 hpa

81 %

4.8 km/h aus 115

9.7 km/h aus E

-7.2 C

-6.7 C

-6.5 C

-4.6 C

0 W/m

0.00 mm

23:15

-4.4 C

999.6 hpa

81 %

3.2 km/h aus 115

8.0 km/h aus E

-7.2 C

-5.6 C

-5.4 C

-4.6 C

0 W/m

0.00 mm

23:20

-4.5 C

999.6 hpa

81 %

3.2 km/h aus 117

8.0 km/h aus E

-7.3 C

-5.7 C

-5.5 C

-4.7 C

0 W/m

0.00 mm

23:25

-4.7 C

999.6 hpa

81 %

4.8 km/h aus 117

8.0 km/h aus E

-7.5 C

-7.0 C

-6.8 C

-4.9 C

0 W/m

0.00 mm

23:30

-4.9 C

999.6 hpa

81 %

4.8 km/h aus 117

8.0 km/h aus ESE

-7.6 C

-7.2 C

-7.0 C

-5.1 C

0 W/m

0.00 mm

23:35

-5.0 C

999.6 hpa

81 %

4.8 km/h aus 116

11.3 km/h aus ESE

-7.8 C

-7.3 C

-7.2 C

-5.2 C

0 W/m

0.00 mm

23:40

-4.8 C

999.6 hpa

82 %

4.8 km/h aus 117

16.1 km/h aus ESE

-7.4 C

-7.1 C

-6.9 C

-5.0 C

0 W/m

0.00 mm

23:45

-4.9 C

999.6 hpa

81 %

3.2 km/h aus 117

9.7 km/h aus ESE

-7.7 C

-6.2 C

-6.0 C

-5.1 C

0 W/m

0.00 mm

23:50

-4.9 C

999.6 hpa

81 %

4.8 km/h aus 117

9.7 km/h aus ESE

-7.7 C

-7.3 C

-7.1 C

-5.1 C

0 W/m

0.00 mm

23:55

-4.8 C

999.6 hpa

81 %

4.8 km/h aus 118

8.0 km/h aus ESE

-7.6 C

-7.1 C

-6.9 C

-5.0 C

0 W/m

0.00 mm